Location: Augustenthal
(51.7167°N, 10.2833°E)
Time: 23:19:54
(UTC+00:00)

Cosmos 1455 Rocket - Pass Details

Date: 30 September 2021
Orbit: 605 x 628 km, 82.5° (Epoch: 15 October)

Event Time Altitude Azimuth Distance (km) Brightness Sun altitude
Exits shadow 20:22:15 17° 12° (NNE) 1,590 5.4 -30.4°
Drops below altitude 10° 20:23:15 10° 12° (NNE) 1,989 5.9 -30.5°
Sets 20:25:30 0° 12° (NNE) 2,904 6.9 -30.7°
